Regional Weather Roundup
Issued by NWS

Home | Current Version | Previous Version | Graphics & Text | Print | Product List | Glossary On
Versions: 1 2 3 4 5 6 7 8 9 10 11 12 13 14 15 16 17 18 19 20 21 22 23 24 25 26 27 28 29 30 31 32 33 34 35 36 37 38 39 40 41 42 43 44 45 46 47 48 49 50
471
ASUS43 KMKX 030721
RWRWI

WISCONSIN REGIONAL WEATHER ROUNDUP
NATIONAL WEATHER SERVICE MILWAUKEE/SULLIVAN WI
100 AM CST SAT DEC 03 2016

NOTE: "FAIR" INDICATES FEW OR NO CLOUDS BELOW 12,000 FEET WITH NO
SIGNIFICANT WEATHER AND/OR OBSTRUCTIONS TO VISIBILITY.

WIZ001-002-006>008-014>016-023>028-030800-
NORTHWEST WISCONSIN

CITY           SKY/WX    TMP DP  RH WIND       PRES   REMARKS
SUPERIOR ARPT  CLOUDY    30  24  81 W5        30.29R WCI  25
ASHLAND        NOT AVBL
HAYWARD        NOT AVBL
SIREN          CLOUDY    29  24  80 W3        30.28S
CUMBERLAND     CLOUDY    28  23  80 W5        30.27S WCI  23
RICE LAKE      CLOUDY    30  24  79 CALM      30.29S
CHETEK         CLOUDY    29  23  76 CALM      30.28S
LADYSMITH      CLOUDY    28  26  89 CALM      30.29S
EAU CLAIRE     CLOUDY    30  25  81 W6        30.29S WCI  24
MENOMONIE      CLOUDY    31  26  80 SW6       30.29S WCI  26
NEW RICHMOND   CLOUDY    29  24  82 CALM      30.29S
OSCEOLA        CLOUDY    30  25  82 W3        30.32F
$$

WIZ003>005-009-010-017-018-030800-
NORTH CENTRAL WISCONSIN

CITY           SKY/WX    TMP DP  RH WIND       PRES   REMARKS
MANITOWISH WTR CLOUDY    26  26 100 W5        30.23S WCI  21
ARBOR VITAE    NOT AVBL
WOODRUFF       NOT AVBL
RHINELANDER    CLOUDY    29  26  89 W3        30.23S
EAGLE RIVER    CLOUDY    28  28  98 CALM      30.22S
LAND O LAKES   CLOUDY    29  28  94 W3        30.22F
PHILLIPS       CLOUDY    25  23  90 CALM      30.24F
TOMAHAWK       CLOUDY    28  22  81 SW3       30.26R
MEDFORD        CLOUDY    27  22  82 NW5       30.25S WCI  22
MERRILL        CLOUDY    29  24  79 W7        30.27R WCI  22
$$

WIZ029-030-035-036-043>047-030800-
CENTRAL WISCONSIN

CITY           SKY/WX    TMP DP  RH WIND       PRES   REMARKS
WAUSAU         CLOUDY    29  22  75 W6        30.25F WCI  23
MOSINEE        CLOUDY    30  25  80 W8        30.28S WCI  23
MARSHFIELD     CLOUDY    29  22  75 NW7       30.26S WCI  22
STEVENS POINT  CLOUDY    28  22  77 W5        30.28S WCI  23
WAUPACA        CLOUDY    33  24  69 CALM      30.29S
WAUTOMA        CLOUDY    31  24  75 W6        30.30S WCI  25
WISC RAPIDS    CLOUDY    30  24  78 NW7       30.29F WCI  23
CAMP DOUGLAS   CLOUDY    31  23  74 W5        30.29S WCI  26
$$

WIZ011>013-019>022-031-037>040-048>050-030800-
NORTHEAST WISCONSIN

CITY           SKY/WX    TMP DP  RH WIND       PRES   REMARKS
ANTIGO         CLOUDY    28  25  86 W6        30.24S WCI  22
SHAWANO        CLOUDY    34  27  74 W7        30.27S WCI  28
OCONTO         CLOUDY    33  28  80 W7        30.27R WCI  27
STURGEON BAY   CLOUDY    36  28  73 NW7       30.26R WCI  30
GREEN BAY      NOT AVBL
MANITOWOC      CLOUDY    33  27  78 W7        30.28S WCI  27
APPLETON       NOT AVBL
CLINTONVILLE   CLOUDY    32  27  80 W8        30.27F WCI  25
OSHKOSH        CLOUDY    31  23  72 W7        30.28F WCI  24
$$

WIZ032>034-041-042-053>061-030800-
SOUTHWEST WISCONSIN

CITY           SKY/WX    TMP DP  RH WIND       PRES   REMARKS
LA CROSSE      NOT AVBL
SPARTA         CLOUDY    31  23  73 W3        30.31S
VIROQUA        CLOUDY    29  23  78 W6        30.29R WCI  23
BOSCOBEL       CLOUDY    32  21  64 W8        30.33S WCI  25
PRAIRIE DU CHI CLOUDY    32  22  67 W6        30.32F WCI  26
PLATTEVILLE    CLOUDY    31  25  78 NW8       30.30F WCI  23
$$

WIZ056-057-062-063-064-067-068-030800-
SOUTH CENTRAL WISCONSIN

CITY           SKY/WX    TMP DP  RH WIND       PRES   REMARKS
REEDSBURG      CLOUDY    30  23  74 W6        30.29F WCI  24
BARABOO/DELLS  CLOUDY    30  23  74 W6        30.29S WCI  24
LONE ROCK      CLOUDY    32  23  69 NW6       30.32F WCI  26
MINERAL POINT  CLOUDY    32  27  80 NW5       30.29S WCI  27
MADISON        CLOUDY    30  22  72 MISG      30.30F
MIDDLETON      CLOUDY    32  25  77 W6        30.30S WCI  26
WATERTOWN      CLOUDY    31  24  74 NW6       30.29S WCI  25
MONROE         CLOUDY    32  25  74 CALM      30.29S
JANESVILLE     CLOUDY    32  25  74 NW5       30.30S WCI  27
$$

WIZ051-052-058>065-066-070>072-030800-
SOUTHEAST WISCONSIN

CITY           SKY/WX    TMP DP  RH WIND       PRES   REMARKS
MILWAUKEE      CLOUDY    33  22  63 NW7       30.30F WCI  27
WAUKESHA       CLOUDY    30  23  74 W6        30.30F WCI  24
MILWAUKEE/TIMM CLOUDY    32  21  64 W9        30.30F WCI  24
RACINE         CLOUDY    32  22  66 NW3       30.32F
BURLINGTON     CLOUDY    32  23  71 CALM      30.30S
KENOSHA        CLOUDY    32  23  69 NW5       30.30F WCI  27
FOND DU LAC    CLOUDY    31  21  66 NW8       30.29F WCI  23
SHEBOYGAN      CLOUDY    32  25  75 W12       30.28S WCI  23
WEST BEND      CLOUDY    32  25  74 W7        30.28F WCI  26
JUNEAU         CLOUDY    30  23  75 W3        30.30S
$$

LSZ147-162-030800-
LAKE SUPERIOR

STATION/POSITION TIME  TEMP    WIND        PRES    WAVE
                       AIR SEA DIR/SP/G            HT/PER
                 (UTC) (F)     (DEG/KT/KT) (MB)    (FT/S)
DEVILS ISLAND    0700   33     300/  7/  9 1025.5R
PORT WING        0630   31     210/  5/  6 1025.1S
SAXON HARBOR     0640   30     200/  6/ 10 1024.7S
$$

LMZ867-665-643>646-030800-
LAKE MICHIGAN

STATION/POSITION TIME  TEMP    WIND        PRES    WAVE
                       AIR SEA DIR/SP/G            HT/PER
                 (UTC) (F)     (DEG/KT/KT) (MB)    (FT/S)
CHAMBERS ISLAND  0640   36     290/  5/ 10 1023.7S
NORTHPORT PIER   0640   37     300/  8/ 12 1023.7S
SISTER BAY       0638   37     340/ 14/ 15   N/A
ALGOMA LAKESHORE 0636          250/  6/  8   N/A
KEWAUNEE LAKESHO 0700   34     290/  7/ 10 1024.2
SHEBOYGAN LAKESH 0700   33     280/  9/ 11 1025.7F
PORT WASHINGTON  0640   33     290/  5/  8 1026.8S
MILWAUKEE LAKESH 0700   32     300/  5/  7   N/A
S MID LAKE BUOY  0650   36 49  290/ 10/ 14 1025.9F   2/ 4
KENOSHA   LAKESH 0700   33     300/  5/  6 1026.1
$$

TC  - TEMPERATURE IN CELSIUS
VSB - VISIBILITY IN STATUTE MILES
WCI - WIND CHILL INDEX
HX  - HEAT INDEX





USA.gov is the U.S. government's official web portal to all federal, state and local government web resources and services.